WetterOnline ( http://www.wetteronline.at )

Wetter aktuell Cottbus

Aktuelles Wetter: Cottbus (70m)

6-stündlich | Neueste Meldungen
Ortszeit Temperatur Wetter
So, 19.08. 2:00 15.5° C wolkig
Sa, 18.08. 20:00 24.4° C leicht bewölkt
Sa, 18.08. 14:00 25.4° C wolkenlos
Sa, 18.08. 8:00 17.5° C leicht bewölkt
Sa, 18.08. 2:00 21.1° C bewölkt
Fr, 17.08. 20:00 27.7° C fast wolkenlos
Fr, 17.08. 14:00 32.2° C wolkenlos
Fr, 17.08. 8:00 19.3° C leicht bewölkt
Ortszeit Temperatur Wetter
So, 19.08. 5:30 13.8° C wolkig
So, 19.08. 5:20 13.8° C wolkig
So, 19.08. 5:10 13.9° C wolkig
So, 19.08. 5:00 14.0° C leicht bewölkt
So, 19.08. 4:50 14.0° C leicht bewölkt
So, 19.08. 4:40 14.0° C leicht bewölkt
So, 19.08. 4:30 14.2° C leicht bewölkt
So, 19.08. 4:00 14.7° C leicht bewölkt
Ortszeit Relative Feuchte Sichtweite
So, 19.08. 2:00 94% 10 km
Sa, 18.08. 20:00 53% 50 km
Sa, 18.08. 14:00 53% 35 km
Sa, 18.08. 8:00 92% 23 km
Sa, 18.08. 2:00 64% 50 km
Fr, 17.08. 20:00 39% 45 km
Fr, 17.08. 14:00 26% 28 km
Fr, 17.08. 8:00 58% 35 km
Ortszeit Relative Feuchte Sichtweite
So, 19.08. 5:30 95% 10 km
So, 19.08. 5:20 95% -
So, 19.08. 5:10 96% -
So, 19.08. 5:00 95% 10 km
So, 19.08. 4:50 95% -
So, 19.08. 4:40 95% -
So, 19.08. 4:30 96% 14 km
So, 19.08. 4:00 96% 10 km
Ortszeit Niederschlagsmenge Niederschlagsart
So, 19.08. 2:00 0.0 l/m2 in 6 Std. -
Sa, 18.08. 20:00 0.0 l/m2 in 12 Std. -
Sa, 18.08. 14:00 0.0 l/m2 in 6 Std. -
Sa, 18.08. 8:00 7 l/m2 in 12 Std. Regen
Sa, 18.08. 2:00 0.0 l/m2 in 6 Std. -
Fr, 17.08. 20:00 0.0 l/m2 in 12 Std. -
Fr, 17.08. 14:00 0.0 l/m2 in 6 Std. -
Fr, 17.08. 8:00 0.0 l/m2 in 12 Std. -
Ortszeit Niederschlagsmenge Niederschlagsart
So, 19.08. 5:30 0.0 l/m2 in 1 Std. -
So, 19.08. 5:20 keine Meldung -
So, 19.08. 5:10 keine Meldung -
So, 19.08. 5:00 0.0 l/m2 in 1 Std. -
So, 19.08. 4:50 keine Meldung -
So, 19.08. 4:40 keine Meldung -
So, 19.08. 4:30 0.0 l/m2 in 1 Std. -
So, 19.08. 4:00 0.0 l/m2 in 1 Std. -
Ortszeit Stärke Spitze Richtung
km/h Bft. km/h Grad Sektor
So, 19.08. 2:00 2 1 6 150° SO
Sa, 18.08. 20:00 4 1 18 320° NW
Sa, 18.08. 14:00 7 2 15 350° N
Sa, 18.08. 8:00 4 1 29 300° NW
Sa, 18.08. 2:00 13 3 37 270° W
Fr, 17.08. 20:00 4 1 22 330° NW
Fr, 17.08. 14:00 11 2 22 190° S
Fr, 17.08. 8:00 6 1 11 100° O
Ortszeit Stärke Spitze Richtung
km/h Bft. km/h Grad Sektor
So, 19.08. 5:30 4 1 4 240° SW
So, 19.08. 5:20 4 1 - 240° SW
So, 19.08. 5:10 2 1 - 240° SW
So, 19.08. 5:00 0 0 7 - -
So, 19.08. 4:50 2 1 - 220° SW
So, 19.08. 4:40 0 0 - 210° SW
So, 19.08. 4:30 4 1 7 180° S
So, 19.08. 4:00 4 1 4 150° SO
Ortszeit Untergrenze Bedeckung Gattung
total tief tief mittel hoch
So, 19.08. 2:00 9000 m 7/8 0/8 - - -
Sa, 18.08. 20:00 10500 m 3/8 0/8 - - -
Sa, 18.08. 14:00 - 0/8 0/8 - - -
Sa, 18.08. 8:00 3600 m 4/8 4/8 - - -
Sa, 18.08. 2:00 2700 m 8/8 4/8 - - -
Fr, 17.08. 20:00 3600 m 1/8 1/8 - - -
Fr, 17.08. 14:00 - 0/8 0/8 - - -
Fr, 17.08. 8:00 2100 m 2/8 2/8 - - -
Ortszeit Bedeckungsgrad in Achtel und Wolkenuntergrenze
So, 19.08. 5:30 7(10500m) 7(10500m)
So, 19.08. 5:20 7(10500m) 7(10500m)
So, 19.08. 5:10 7(10500m) 7(10500m)
So, 19.08. 5:00 6(10500m) 7(10500m)
So, 19.08. 4:50 6(10500m)
So, 19.08. 4:40 1(3300m) 5(10500m)
So, 19.08. 4:30 1(3300m) 3(10500m)
So, 19.08. 4:00 1(3300m) 4(10500m)
Ortszeit Luftdruck NN (hPa) Tendenz (hPa in 3 Std.)
So, 19.08. 2:00 1021 + 0,2
Sa, 18.08. 20:00 1020 0,0
Sa, 18.08. 14:00 1021 - 0,4
Sa, 18.08. 8:00 1020 + 1,3
Sa, 18.08. 2:00 1018 + 3,4
Fr, 17.08. 20:00 1013 0,0
Fr, 17.08. 14:00 1013 - 1,0
Fr, 17.08. 8:00 1015 + 0,2
Ortszeit Luftdruck NN (hPa) Tendenz (hPa in 3 Std.)
So, 19.08. 5:30 1021 - 0,2
So, 19.08. 5:20 1021 keine Meldung
So, 19.08. 5:10 1021 keine Meldung
So, 19.08. 5:00 1021 - 0,2
So, 19.08. 4:50 1021 keine Meldung
So, 19.08. 4:40 1021 keine Meldung
So, 19.08. 4:30 1021 - 0,2
So, 19.08. 4:00 1021 0,0
Ortszeit Schneehöhe (cm)
So, 19.08. 2:00 -
Sa, 18.08. 20:00 -
Sa, 18.08. 14:00 -
Sa, 18.08. 8:00 -
Sa, 18.08. 2:00 -
Fr, 17.08. 20:00 -
Fr, 17.08. 14:00 -
Fr, 17.08. 8:00 -
Ortszeit Schneehöhe (cm)
So, 19.08. 5:30 -
So, 19.08. 5:20 -
So, 19.08. 5:10 -
So, 19.08. 5:00 -
So, 19.08. 4:50 -
So, 19.08. 4:40 -
So, 19.08. 4:30 -
So, 19.08. 4:00 -
Link zu dieser Seite / Seite empfehlen

Das Wetter in ...